Location: Chmeln�
(49.6483°N, 14.9871°E)
Time: 05:06:47
(UTC+00:00)

DMSP B5D2-2 - Pass Details

Date: 18 September 2020
Orbit: 790 x 806 km, 98.3° (Epoch: 29 October)

Event Time Altitude Azimuth Distance (km) Brightness Sun altitude
Rises 18:38:20 0° 17° (NNE) 3,334 7.4 -15.4°
Reaches altitude 10° 18:40:44 10° 21° (NNE) 2,399 6.6 -15.7°
Maximum altitude 18:45:58 58° 101° (E) 935 4.1 -16.5°
Drops below altitude 10° 18:51:10 10° 180° (S) 2,380 6.3 -17.3°
Sets 18:53:31 0° 184° (S) 3,305 7.1 -17.6°
